Location: Marengo
(51.4813°N, 109.7825°W)
Time: 21:27:52
(UTC+00:00)

Envisat - Pass Details

Date: 25 January 2022
Orbit: 764 x 765 km, 98.2° (Epoch: 21 May)

Event Time Altitude Azimuth Distance (km) Brightness Sun altitude
Rises 11:33:39 0° 20° (NNE) 3,243 6.6 -32.9°
Reaches altitude 10° 11:36:11 10° 30° (NNE) 2,313 5.9 -32.5°
Maximum altitude 11:40:48 34° 95° (E) 1,251 4.5 -31.8°
Drops below altitude 10° 11:45:23 10° 160° (SSE) 2,298 5.6 -31.1°
Sets 11:47:53 0° 169° (S) 3,219 6.3 -30.7°
